CANX-2

Last updated on Wed Sep 17 2025 00:03:48 GMT+0000 (Coordinated Universal Time)

1 32790U 08021H 25259.49525196 .00003564 00000+0 27302-3 0 9990 2 32790 97.8296 230.0967 0008628 243.1386 116.8957 15.02491536943663
UTC large
Height (km)
Speed (km/s)
/
Latitude / Longitude
Inclination (degrees)
Orbital Period (minutes)
Azimuth
Elevation
Range (km)
Doppler Factor

Next 0 passes for location: London (51.5072 / 0.1276)

Sorry there are no passes over London.